Location: Eaton Estates
(41.3089°N, 82.0057°W)
Time: 11:46:15
(UTC+00:00)

USA 308 - Pass Details

Date: 27 October 2021
Orbit: 562 x 573 km, 54.0° (Epoch: 28 November)

Event Time Altitude Azimuth Distance (km) Brightness Sun altitude
Exits shadow 09:44:48 41° 14° (NNE) 819 3.7 -24.8°
Drops below altitude 10° 09:47:53 10° 43° (NE) 1,856 6.1 -24.2°
Sets 09:50:10 0° 48° (NE) 2,755 7.2 -23.8°
